Showing default

BUZZZER-1, 62609

Orbit data source: Space-Track

BUZZZER-1, 62609 is a payload satellite owned by Unseen Labs (FR) in SSO that was launched on Tue, 14 Jan 2025 UTC via an FALCON 9 launch vehicle from the Air Force Western Test Range (AFWTR). Payload-class satellites include a variety of spacecraft equipped with specific instruments for various scientific and technological missions. These include communications satellites like Starlink; space stations such as the ISS; scientific satellites like the Hubble; Earth observation satellites from companies like Planet Labs, Umbra, and HawkEye 360; GPS; miniature CubeSats for education and research; and military/defense satellites.

Loading next visibility...
Identifier
62609, 2025-009A
Orbit
SSO
Last TLE update
13 hours ago
Origin
Manufacturer
Unseen Labs
Mission
Operational Commercial Sigint
Bus & Motor
CUBESAT 6U, Unknown motor
Mass
~10 kg wet, ~10 kg dry
Launch date (UTC)
2025-01-14 (4 months ago)
Launch vehicle
FALCON 9
Launch site
Air Force Western Test Range (AFWTR)
Object type
Payload
Rocket body
Debris
Shape & HBR
Box + 2 Pan, 0.3 m
Radar Cross Section
0.080 m², Medium (>0.1 m² and < 1m²)

Expand to show TLE details & history

TLE from 13 hours ago
0 BUZZZER-1
1 62609U 25009A   25128.72980977  .00005335  00000-0  26439-3 0  9999
2 62609  97.4246 209.2658 0006701 317.0375  43.0335 15.18149863 17269
Epoch: 2025-05-08T17:30Z
Definitive object data (Epoch: 2025-05-08T17:30:55.564Z)
Latitude
-0.00001°
Longitude
79.73817°
Altitude
511.146 km
Speed
7.61 km/s
True Right ascension
13h 57m 03s
True Declination
0° 00' 00"
Sunlit
Object was in full shadow at TLE epoch
Visualization TLE readout
Latitude
68.73261°
Longitude
-80.276°
Altitude
527.504 km
Speed
7.603 km/s
Apparent Right ascension
02h 57m 53s
Apparent Declination
17° 34' 05"
Sunlit
Object is in daylight
Visualization observer readout
Local Sidereal Time
14:48:05
Azimuth
357.233° N
Elevation
-32.47°
Doppler factor
1
Orbital elements
Apogee altitude
513.016 km
Perigee altitude
503.787 km
Semi-major axis
6,886.538 km
Eccentricity
0.0006701
Inclination
97.4246°
RAAN
209.2658°
Arg. of periapsis
317.0375°
True anomaly
43.08593°
Mean anomaly
43.0335°
Eccentric anomaly
43.05971°
Mean motion
3.79788 °/min
BSTAR
0.00026439
Orbital period
94.79 mins
Loading maneuver chart data...
Loading SW <> Apogee altitude chart data...
Loading historical data...
Loading historical data...
Loading historical data...
Loading historical data...
Loading historical data...
Loading historical data...
Loading historical data...

BUZZZER-1 Visibility forecast

Observer location: undefined°, undefined°

Span
Click to sort rows by Start time (UTC) header in descending order
Start Az.
Max El. time (UTC)
Max El. Az.
Max El.
End time (UTC)
End Az.
6 mins2025-05-09 17:48:13.233Z26.91° NE2025-05-09 17:51:13.233Z78.953° E33.069°2025-05-09 17:54:13.233Z164.806° S
5 mins2025-05-10 06:02:13.233Z217.839° SW2025-05-10 06:04:13.233Z264.903° W24.507°2025-05-10 06:07:13.233Z321.973° NNW
|